JBU842 EIDW-KJFK

Flight info

Callsign JBU842
Flight time 6h 41m
Altitude 30000
Route PELIG2J PELIG DCT DOGAL/M079F320 DCT 54N020W 54N030W 53N040W 51N050W DCT ALLRY/N0461F340 N468A TUSKY DCT PLYMM PARCH4
Aircraft A321/M-SDE3FGHIRWY/LB1

Departure

Time 2026-05-09 04:52
Airport Dublin Airport (EIDW)

Arrival

Time 2026-05-09 11:33
Airport John F. Kennedy International Airport (KJFK)
Time Latitude Longitude Altitude Speed Heading
2026-05-09 04:12 53.43265 -6.24561 225 ft 0 kts 42°
2026-05-09 04:45 53.43262 -6.24565 225 ft 3 kts 42°
2026-05-09 04:45 53.43242 -6.24595 225 ft 4 kts 42°
2026-05-09 04:46 53.43222 -6.24624 227 ft 4 kts 38°
2026-05-09 04:46 53.43206 -6.24649 225 ft 4 kts 62°
2026-05-09 04:46 53.43199 -6.24690 225 ft 4 kts 92°
2026-05-09 04:46 53.43200 -6.24711 225 ft 1 kts 96°
2026-05-09 04:47 53.43200 -6.24713 225 ft 0 kts 96°
2026-05-09 04:49 53.43200 -6.24706 225 ft 2 kts 96°
2026-05-09 04:49 53.43196 -6.24651 226 ft 8 kts 97°
2026-05-09 04:49 53.43188 -6.24528 225 ft 13 kts 96°
2026-05-09 04:50 53.43233 -6.24415 225 ft 13 kts 13°
2026-05-09 04:50 53.43322 -6.24372 225 ft 14 kts 44°
2026-05-09 04:50 53.43333 -6.24211 225 ft 15 kts 95°
2026-05-09 04:50 53.43324 -6.24030 225 ft 16 kts 95°
2026-05-09 04:51 53.43361 -6.23866 224 ft 16 kts 22°
2026-05-09 04:51 53.43472 -6.23856 222 ft 10 kts 353°
2026-05-09 04:51 53.43493 -6.23924 222 ft 0 kts 275°
2026-05-09 04:51 53.43495 -6.23961 222 ft 18 kts 275°
2026-05-09 04:52 53.43529 -6.24577 227 ft 89 kts 275°
2026-05-09 04:52 53.43604 -6.25969 228 ft 148 kts 275°
2026-05-09 04:52 53.43710 -6.27907 544 ft 173 kts 278°
2026-05-09 04:52 53.43896 -6.29879 1364 ft 171 kts 298°
2026-05-09 04:53 53.44657 -6.31365 1857 ft 171 kts 323°
2026-05-09 04:53 53.45570 -6.32800 2017 ft 190 kts 317°
2026-05-09 04:53 53.46437 -6.34620 2178 ft 208 kts 311°
2026-05-09 04:53 53.47300 -6.36633 2446 ft 221 kts 309°
2026-05-09 04:54 53.48223 -6.38862 2566 ft 244 kts 307°
2026-05-09 04:54 53.48880 -6.41581 2929 ft 261 kts 278°
2026-05-09 04:54 53.48655 -6.44622 3480 ft 269 kts 247°
2026-05-09 04:54 53.47759 -6.47345 4093 ft 272 kts 241°
2026-05-09 04:55 53.46843 -6.50132 4755 ft 273 kts 243°
2026-05-09 04:55 53.45956 -6.52960 5400 ft 275 kts 246°
2026-05-09 04:55 53.45466 -6.56035 5983 ft 275 kts 269°
2026-05-09 04:55 53.45667 -6.59215 6601 ft 275 kts 280°
2026-05-09 04:56 53.45992 -6.62385 7198 ft 277 kts 280°
2026-05-09 04:56 53.46208 -6.64495 7585 ft 278 kts 280°
2026-05-09 04:56 53.46533 -6.67702 8187 ft 280 kts 280°
2026-05-09 04:56 53.46857 -6.70932 8770 ft 282 kts 280°
2026-05-09 04:57 53.47180 -6.74188 9376 ft 283 kts 280°
2026-05-09 04:57 53.47505 -6.77470 9970 ft 285 kts 280°
2026-05-09 04:57 53.47831 -6.80772 10469 ft 291 kts 279°
2026-05-09 04:57 53.48173 -6.84239 10589 ft 309 kts 279°
2026-05-09 04:58 53.48529 -6.87848 10722 ft 326 kts 279°
2026-05-09 04:58 53.48908 -6.91695 10843 ft 342 kts 279°
2026-05-09 04:58 53.49302 -6.95722 10972 ft 357 kts 279°
2026-05-09 04:58 53.49711 -6.99927 11149 ft 370 kts 279°
2026-05-09 04:59 53.50126 -7.04222 11601 ft 374 kts 279°
2026-05-09 04:59 53.50544 -7.08557 12150 ft 376 kts 279°
2026-05-09 04:59 53.50962 -7.12895 12712 ft 377 kts 278°
2026-05-09 04:59 53.51381 -7.17270 13254 ft 380 kts 278°
2026-05-09 05:00 53.51802 -7.21662 13797 ft 382 kts 278°
2026-05-09 05:00 53.52219 -7.26029 14289 ft 384 kts 278°
2026-05-09 05:00 53.52640 -7.30476 14780 ft 386 kts 278°
2026-05-09 05:00 53.53062 -7.34947 15288 ft 388 kts 278°
2026-05-09 05:01 53.53483 -7.39439 15794 ft 389 kts 278°
2026-05-09 05:01 53.53904 -7.43949 16302 ft 391 kts 277°
2026-05-09 05:01 53.54324 -7.48470 16798 ft 392 kts 277°
2026-05-09 05:01 53.54744 -7.53009 17281 ft 394 kts 277°
2026-05-09 05:02 53.55165 -7.57572 17764 ft 395 kts 277°
2026-05-09 05:02 53.55587 -7.62147 18191 ft 397 kts 277°
2026-05-09 05:02 53.56009 -7.66751 18616 ft 399 kts 277°
2026-05-09 05:02 53.56433 -7.71381 18984 ft 400 kts 277°
2026-05-09 05:03 53.56851 -7.75959 19333 ft 402 kts 277°
2026-05-09 05:03 53.57273 -7.80621 19702 ft 404 kts 277°
2026-05-09 05:03 53.57697 -7.85308 20069 ft 406 kts 277°
2026-05-09 05:03 53.58119 -7.90010 20439 ft 407 kts 277°
2026-05-09 05:04 53.58541 -7.94729 20804 ft 409 kts 277°
2026-05-09 05:04 53.58964 -7.99474 21164 ft 410 kts 276°
2026-05-09 05:04 53.59384 -8.04229 21521 ft 412 kts 276°
2026-05-09 05:04 53.59803 -8.09004 21854 ft 413 kts 276°
2026-05-09 05:05 53.60221 -8.13803 22221 ft 415 kts 276°
2026-05-09 05:05 53.60639 -8.18616 22558 ft 416 kts 276°
2026-05-09 05:05 53.61060 -8.23446 22903 ft 418 kts 276°
2026-05-09 05:05 53.61482 -8.28288 23235 ft 419 kts 276°
2026-05-09 05:06 53.61899 -8.33153 23561 ft 421 kts 276°
2026-05-09 05:06 53.62309 -8.37981 23869 ft 422 kts 276°
2026-05-09 05:06 53.62724 -8.42885 24103 ft 423 kts 275°
2026-05-09 05:06 53.63139 -8.47808 24360 ft 425 kts 275°
2026-05-09 05:07 53.63553 -8.52767 24596 ft 427 kts 275°
2026-05-09 05:07 53.63967 -8.57735 24833 ft 429 kts 275°
2026-05-09 05:07 53.64382 -8.62725 25067 ft 431 kts 275°
2026-05-09 05:07 53.64798 -8.67735 25318 ft 433 kts 275°
2026-05-09 05:08 53.65214 -8.72771 25563 ft 435 kts 275°
2026-05-09 05:08 53.65630 -8.77820 25839 ft 435 kts 275°
2026-05-09 05:08 53.66038 -8.82807 26175 ft 435 kts 275°
2026-05-09 05:08 53.66448 -8.87861 26508 ft 434 kts 275°
2026-05-09 05:09 53.66855 -8.92903 26833 ft 434 kts 275°
2026-05-09 05:09 53.67261 -8.97956 27158 ft 434 kts 274°
2026-05-09 05:09 53.67664 -9.02997 27475 ft 434 kts 274°
2026-05-09 05:09 53.68066 -9.08045 27792 ft 433 kts 274°
2026-05-09 05:10 53.68464 -9.13085 28120 ft 433 kts 274°
2026-05-09 05:10 53.68860 -9.18120 28437 ft 433 kts 274°
2026-05-09 05:10 53.69252 -9.23156 28754 ft 433 kts 274°
2026-05-09 05:10 53.69642 -9.28195 29064 ft 433 kts 274°
2026-05-09 05:11 53.70029 -9.33230 29376 ft 432 kts 274°
2026-05-09 05:11 53.70416 -9.38262 29683 ft 432 kts 274°
2026-05-09 05:11 53.70800 -9.43289 29980 ft 432 kts 274°
2026-05-09 05:11 53.71177 -9.48263 30243 ft 433 kts 274°
2026-05-09 05:12 53.71557 -9.53315 30298 ft 433 kts 274°
2026-05-09 05:12 53.72312 -9.63399 30300 ft 433 kts 274°
2026-05-09 05:13 53.73057 -9.73484 30300 ft 432 kts 273°
2026-05-09 05:13 53.73792 -9.83561 30300 ft 432 kts 273°
2026-05-09 05:14 53.74518 -9.93626 30299 ft 432 kts 273°
2026-05-09 05:14 53.75244 -10.03696 30308 ft 432 kts 273°
2026-05-09 05:15 53.75952 -10.13711 30313 ft 431 kts 273°
2026-05-09 05:15 53.76644 -10.23778 30319 ft 431 kts 273°
2026-05-09 05:16 53.77343 -10.33865 30326 ft 431 kts 273°
2026-05-09 05:16 53.78024 -10.43927 30332 ft 431 kts 273°
2026-05-09 05:17 53.78693 -10.54002 30333 ft 431 kts 273°
2026-05-09 05:17 53.79361 -10.64061 30338 ft 430 kts 273°
2026-05-09 05:18 53.80015 -10.74113 30337 ft 430 kts 272°
2026-05-09 05:18 53.80661 -10.84163 30345 ft 430 kts 272°
2026-05-09 05:19 53.81303 -10.94151 30341 ft 429 kts 273°
2026-05-09 05:19 53.81940 -11.04213 30344 ft 429 kts 272°
2026-05-09 05:20 53.82565 -11.14262 30351 ft 428 kts 272°
2026-05-09 05:20 53.83179 -11.24291 30348 ft 428 kts 272°
2026-05-09 05:21 53.83776 -11.34247 30353 ft 427 kts 272°
2026-05-09 05:21 53.84364 -11.44254 30357 ft 426 kts 272°
2026-05-09 05:22 53.84954 -11.54239 30359 ft 425 kts 272°
2026-05-09 05:22 53.85528 -11.64148 30363 ft 425 kts 272°
2026-05-09 05:23 53.86092 -11.74097 30362 ft 424 kts 272°
2026-05-09 05:23 53.86647 -11.84042 30362 ft 423 kts 272°
2026-05-09 05:24 53.87193 -11.93963 30367 ft 423 kts 272°
2026-05-09 05:24 53.87736 -12.03874 30368 ft 422 kts 272°
2026-05-09 05:25 53.88267 -12.13780 30367 ft 421 kts 272°
2026-05-09 05:25 53.89037 -12.28566 30371 ft 421 kts 272°
2026-05-09 05:26 53.89548 -12.38460 30371 ft 420 kts 272°
2026-05-09 05:26 53.90048 -12.48354 30370 ft 420 kts 272°
2026-05-09 05:27 53.90540 -12.58228 30372 ft 420 kts 272°
2026-05-09 05:27 53.91022 -12.68047 30367 ft 420 kts 272°
2026-05-09 05:28 53.91493 -12.77921 30369 ft 420 kts 272°
2026-05-09 05:28 53.91957 -12.87795 30367 ft 420 kts 272°
2026-05-09 05:29 53.92426 -12.97695 30364 ft 420 kts 272°
2026-05-09 05:29 53.92877 -13.07567 30552 ft 424 kts 272°
2026-05-09 05:30 53.93098 -13.12580 30744 ft 425 kts 272°
2026-05-09 05:30 53.93318 -13.17596 30932 ft 426 kts 272°
2026-05-09 05:30 53.93538 -13.22628 31126 ft 427 kts 272°
2026-05-09 05:30 53.93758 -13.27666 31320 ft 428 kts 273°
2026-05-09 05:31 53.93976 -13.32709 31510 ft 429 kts 273°
2026-05-09 05:31 53.94192 -13.37768 31700 ft 430 kts 273°
2026-05-09 05:31 53.94406 -13.42766 31895 ft 430 kts 273°
2026-05-09 05:31 53.94622 -13.47828 32103 ft 430 kts 273°
2026-05-09 05:32 53.94835 -13.52906 32301 ft 430 kts 273°
2026-05-09 05:32 53.95039 -13.57984 32377 ft 431 kts 273°
2026-05-09 05:32 53.95449 -13.68156 32379 ft 432 kts 273°
2026-05-09 05:33 53.95853 -13.78338 32383 ft 432 kts 274°
2026-05-09 05:33 53.96250 -13.88545 32386 ft 433 kts 274°
2026-05-09 05:34 53.96642 -13.98712 32389 ft 435 kts 274°
2026-05-09 05:34 53.97027 -14.08976 32388 ft 436 kts 274°
2026-05-09 05:35 53.97390 -14.19286 32381 ft 437 kts 275°
2026-05-09 05:35 53.97748 -14.29556 32376 ft 439 kts 275°
2026-05-09 05:36 53.98108 -14.39930 32369 ft 441 kts 275°
2026-05-09 05:36 53.98464 -14.50376 32370 ft 443 kts 275°
2026-05-09 05:37 53.98809 -14.60866 32368 ft 445 kts 276°
2026-05-09 05:37 53.99144 -14.71352 32368 ft 448 kts 276°
2026-05-09 05:38 53.99470 -14.81955 32372 ft 450 kts 276°
2026-05-09 05:38 53.99794 -14.92614 32380 ft 451 kts 276°
2026-05-09 05:39 54.00090 -15.03234 32381 ft 453 kts 275°
2026-05-09 05:39 54.00315 -15.13983 32389 ft 455 kts 275°
2026-05-09 05:40 54.00504 -15.24755 32392 ft 456 kts 275°
2026-05-09 05:40 54.00692 -15.35541 32397 ft 457 kts 275°
2026-05-09 05:41 54.00880 -15.46290 32400 ft 458 kts 275°
2026-05-09 05:41 54.01063 -15.57123 32407 ft 458 kts 275°
2026-05-09 05:42 54.01228 -15.67992 32412 ft 459 kts 275°
2026-05-09 05:42 54.01385 -15.78792 32416 ft 460 kts 275°
2026-05-09 05:43 54.01533 -15.89676 32424 ft 460 kts 274°
2026-05-09 05:43 54.01681 -16.00561 32421 ft 461 kts 274°
2026-05-09 05:44 54.01813 -16.11403 32436 ft 461 kts 274°
2026-05-09 05:44 54.01930 -16.22321 32432 ft 461 kts 274°
2026-05-09 05:45 54.02035 -16.33235 32440 ft 461 kts 274°
2026-05-09 05:45 54.02140 -16.44129 32439 ft 461 kts 274°
2026-05-09 05:46 54.02236 -16.54971 32441 ft 461 kts 274°
2026-05-09 05:46 54.02312 -16.65889 32442 ft 461 kts 274°
2026-05-09 05:47 54.02381 -16.76808 32443 ft 460 kts 274°
2026-05-09 05:47 54.02446 -16.87700 32447 ft 460 kts 274°
2026-05-09 05:48 54.02495 -16.98517 32451 ft 460 kts 274°
2026-05-09 05:48 54.02534 -17.09419 32451 ft 460 kts 274°
2026-05-09 05:49 54.02571 -17.20316 32454 ft 460 kts 274°
2026-05-09 05:49 54.02592 -17.31131 32458 ft 460 kts 273°
2026-05-09 05:50 54.02604 -17.40244 32457 ft 460 kts 273°
2026-05-09 05:50 54.02609 -17.51118 32458 ft 459 kts 273°
2026-05-09 05:51 54.02598 -17.61906 32456 ft 459 kts 273°
2026-05-09 05:51 54.02581 -17.72765 32459 ft 459 kts 273°
2026-05-09 05:52 54.02555 -17.83633 32458 ft 459 kts 273°
2026-05-09 05:52 54.02516 -17.94493 32458 ft 459 kts 273°
2026-05-09 05:53 54.02475 -18.05373 32459 ft 460 kts 274°
2026-05-09 05:53 54.02427 -18.16183 32456 ft 460 kts 274°
2026-05-09 05:54 54.02360 -18.27089 32462 ft 461 kts 274°
2026-05-09 05:54 54.02293 -18.38013 32459 ft 462 kts 274°
2026-05-09 05:55 54.02200 -18.48975 32460 ft 463 kts 274°
2026-05-09 05:55 54.02101 -18.59874 32463 ft 464 kts 275°
2026-05-09 05:56 54.01998 -18.70871 32465 ft 465 kts 275°
2026-05-09 05:56 54.01884 -18.81896 32461 ft 466 kts 275°
2026-05-09 05:57 54.01752 -18.92938 32461 ft 468 kts 275°
2026-05-09 05:57 54.01611 -19.04017 32460 ft 469 kts 276°
2026-05-09 05:58 54.01469 -19.15037 32464 ft 470 kts 276°
2026-05-09 05:58 54.01312 -19.26172 32463 ft 471 kts 276°
2026-05-09 05:59 54.01150 -19.37314 32466 ft 472 kts 276°
2026-05-09 05:59 54.00981 -19.48484 32464 ft 473 kts 276°
2026-05-09 06:00 54.00792 -19.59682 32468 ft 474 kts 276°
2026-05-09 06:00 54.00584 -19.70832 32463 ft 475 kts 276°
2026-05-09 06:01 54.00368 -19.82063 32473 ft 476 kts 276°
2026-05-09 06:01 54.00137 -19.93321 32478 ft 476 kts 276°
2026-05-09 06:02 54.00186 -20.04508 32493 ft 469 kts 283°
2026-05-09 06:02 54.00655 -20.15590 32493 ft 470 kts 283°
2026-05-09 06:03 54.01101 -20.26617 32497 ft 471 kts 282°
2026-05-09 06:03 54.01529 -20.37735 32503 ft 471 kts 282°
2026-05-09 06:04 54.01945 -20.48869 32503 ft 472 kts 282°
2026-05-09 06:04 54.02354 -20.60019 32507 ft 472 kts 282°
2026-05-09 06:05 54.02752 -20.71155 32504 ft 472 kts 283°
2026-05-09 06:05 54.03145 -20.82235 32508 ft 472 kts 283°
2026-05-09 06:06 54.03535 -20.93388 32511 ft 472 kts 283°
2026-05-09 06:06 54.03908 -21.04565 32511 ft 473 kts 283°
2026-05-09 06:07 54.04270 -21.15742 32514 ft 473 kts 283°
2026-05-09 06:07 54.04617 -21.26938 32522 ft 474 kts 283°
2026-05-09 06:08 54.04956 -21.38144 32518 ft 474 kts 283°
2026-05-09 06:08 54.05286 -21.49285 32522 ft 474 kts 283°
2026-05-09 06:09 54.05610 -21.60512 32523 ft 475 kts 283°
2026-05-09 06:09 54.05920 -21.71744 32525 ft 475 kts 283°
2026-05-09 06:10 54.06221 -21.82977 32531 ft 475 kts 283°
2026-05-09 06:10 54.06513 -21.94218 32527 ft 475 kts 282°
2026-05-09 06:11 54.06788 -22.05404 32529 ft 475 kts 282°
2026-05-09 06:11 54.07057 -22.16643 32530 ft 475 kts 282°
2026-05-09 06:12 54.07322 -22.27893 32534 ft 475 kts 282°
2026-05-09 06:12 54.07575 -22.39142 32539 ft 475 kts 282°
2026-05-09 06:13 54.07810 -22.50325 32542 ft 475 kts 282°
2026-05-09 06:13 54.08033 -22.61582 32545 ft 475 kts 282°
2026-05-09 06:14 54.08249 -22.72847 32548 ft 475 kts 282°
2026-05-09 06:14 54.08455 -22.84118 32545 ft 475 kts 282°
2026-05-09 06:15 54.08648 -22.95309 32547 ft 475 kts 282°
2026-05-09 06:15 54.08834 -23.06581 32551 ft 475 kts 282°
2026-05-09 06:16 54.09012 -23.17850 32549 ft 475 kts 282°
2026-05-09 06:16 54.09183 -23.29035 32560 ft 475 kts 282°
2026-05-09 06:17 54.09340 -23.40311 32560 ft 475 kts 282°
2026-05-09 06:17 54.09480 -23.51588 32563 ft 475 kts 282°
2026-05-09 06:18 54.09616 -23.62860 32565 ft 475 kts 282°
2026-05-09 06:18 54.09740 -23.74065 32570 ft 475 kts 281°
2026-05-09 06:19 54.09847 -23.85351 32570 ft 475 kts 281°
2026-05-09 06:19 54.09947 -23.96539 32571 ft 475 kts 281°
2026-05-09 06:20 54.10044 -24.07791 32571 ft 475 kts 281°
2026-05-09 06:20 54.10126 -24.19042 32577 ft 475 kts 281°
2026-05-09 06:21 54.10196 -24.30261 32581 ft 475 kts 281°
2026-05-09 06:21 54.10258 -24.41527 32582 ft 475 kts 281°
2026-05-09 06:22 54.10304 -24.52780 32585 ft 475 kts 281°
2026-05-09 06:22 54.10340 -24.64052 32589 ft 475 kts 281°
2026-05-09 06:23 54.10360 -24.75255 32591 ft 475 kts 281°
2026-05-09 06:23 54.10381 -24.86498 32590 ft 474 kts 280°
2026-05-09 06:24 54.10394 -24.97738 32584 ft 474 kts 280°
2026-05-09 06:24 54.10396 -25.08984 32588 ft 474 kts 280°
2026-05-09 06:25 54.10381 -25.20165 32590 ft 474 kts 280°
2026-05-09 06:25 54.10352 -25.31400 32592 ft 474 kts 280°
2026-05-09 06:26 54.10314 -25.42651 32592 ft 474 kts 280°
2026-05-09 06:26 54.10278 -25.53872 32592 ft 474 kts 279°
2026-05-09 06:27 54.10224 -25.65031 32595 ft 474 kts 279°
2026-05-09 06:27 54.10156 -25.76263 32595 ft 473 kts 279°
2026-05-09 06:28 54.10081 -25.87480 32598 ft 473 kts 279°
2026-05-09 06:28 54.09994 -25.98712 32602 ft 473 kts 279°
2026-05-09 06:29 54.09889 -26.09869 32603 ft 473 kts 279°
2026-05-09 06:29 54.09780 -26.21090 32602 ft 473 kts 279°
2026-05-09 06:30 54.09667 -26.32306 32605 ft 473 kts 278°
2026-05-09 06:30 54.09534 -26.43527 32605 ft 473 kts 278°
2026-05-09 06:31 54.09399 -26.54663 32608 ft 473 kts 278°
2026-05-09 06:31 54.09253 -26.65869 32606 ft 472 kts 278°
2026-05-09 06:32 54.09100 -26.77056 32611 ft 472 kts 278°
2026-05-09 06:33 54.08847 -26.93842 32609 ft 472 kts 278°
2026-05-09 06:33 54.08656 -27.04959 32608 ft 472 kts 278°
2026-05-09 06:34 54.08355 -27.21751 32609 ft 472 kts 277°
2026-05-09 06:34 54.08144 -27.32936 32610 ft 473 kts 277°
2026-05-09 06:35 54.07922 -27.44125 32610 ft 473 kts 277°
2026-05-09 06:35 54.07691 -27.55322 32613 ft 473 kts 277°
2026-05-09 06:36 54.07454 -27.66510 32613 ft 472 kts 277°
2026-05-09 06:36 54.07202 -27.77613 32612 ft 472 kts 277°
2026-05-09 06:37 54.06942 -27.88805 32612 ft 473 kts 277°
2026-05-09 06:37 54.06672 -27.99998 32620 ft 473 kts 276°
2026-05-09 06:38 54.06378 -28.11182 32619 ft 473 kts 276°
2026-05-09 06:38 54.06078 -28.22369 32625 ft 473 kts 276°
2026-05-09 06:39 54.05773 -28.33555 32624 ft 473 kts 276°
2026-05-09 06:39 54.05460 -28.44738 32620 ft 473 kts 276°
2026-05-09 06:40 54.05145 -28.55840 32621 ft 472 kts 276°
2026-05-09 06:40 54.04808 -28.67019 32615 ft 472 kts 275°
2026-05-09 06:41 54.04454 -28.78179 32613 ft 473 kts 275°
2026-05-09 06:41 54.04095 -28.89348 32616 ft 472 kts 275°
2026-05-09 06:42 54.03734 -29.00509 32620 ft 473 kts 275°
2026-05-09 06:42 54.03362 -29.11677 32621 ft 472 kts 275°
2026-05-09 06:43 54.02976 -29.22754 32622 ft 472 kts 275°
2026-05-09 06:43 54.02583 -29.33915 32624 ft 472 kts 275°
2026-05-09 06:44 54.02240 -29.43270 32625 ft 472 kts 274°
2026-05-09 06:44 54.01821 -29.54354 32625 ft 472 kts 274°
2026-05-09 06:45 54.01396 -29.65503 32624 ft 472 kts 274°
2026-05-09 06:45 54.00965 -29.76651 32625 ft 472 kts 274°
2026-05-09 06:46 54.00517 -29.87788 32623 ft 472 kts 274°
2026-05-09 06:46 54.00048 -29.98923 32621 ft 472 kts 273°
2026-05-09 06:47 53.99482 -30.10067 32622 ft 473 kts 272°
2026-05-09 06:47 53.98829 -30.21208 32624 ft 474 kts 271°
2026-05-09 06:48 53.98150 -30.32261 32624 ft 473 kts 271°
2026-05-09 06:48 53.97477 -30.43390 32625 ft 473 kts 271°
2026-05-09 06:49 53.96801 -30.54502 32623 ft 472 kts 271°
2026-05-09 06:49 53.96116 -30.65598 32624 ft 472 kts 271°
2026-05-09 06:50 53.95423 -30.76682 32626 ft 472 kts 271°
2026-05-09 06:50 53.94716 -30.87753 32625 ft 471 kts 270°
2026-05-09 06:51 53.94005 -30.98819 32624 ft 471 kts 270°
2026-05-09 06:51 53.93289 -31.09857 32623 ft 470 kts 270°
2026-05-09 06:52 53.92568 -31.20820 32632 ft 470 kts 270°
2026-05-09 06:52 53.91825 -31.31830 32619 ft 469 kts 270°
2026-05-09 06:53 53.91073 -31.42835 32622 ft 469 kts 270°
2026-05-09 06:53 53.90311 -31.53812 32620 ft 468 kts 270°
2026-05-09 06:54 53.89540 -31.64777 32619 ft 468 kts 269°
2026-05-09 06:54 53.88758 -31.75724 32620 ft 467 kts 269°
2026-05-09 06:55 53.87977 -31.86568 32620 ft 466 kts 269°
2026-05-09 06:55 53.87192 -31.97492 32619 ft 466 kts 269°
2026-05-09 06:56 53.86392 -32.08389 32617 ft 466 kts 269°
2026-05-09 06:56 53.85577 -32.19266 32616 ft 465 kts 269°
2026-05-09 06:57 53.84753 -32.30130 32620 ft 464 kts 268°
2026-05-09 06:57 53.83918 -32.40964 32619 ft 464 kts 268°
2026-05-09 06:58 53.83080 -32.51707 32615 ft 463 kts 268°
2026-05-09 06:58 53.82227 -32.62499 32617 ft 462 kts 268°
2026-05-09 06:59 53.81374 -32.73293 32617 ft 462 kts 268°
2026-05-09 06:59 53.80513 -32.84071 32613 ft 461 kts 268°
2026-05-09 07:00 53.79645 -32.94816 32608 ft 461 kts 268°
2026-05-09 07:00 53.78764 -33.05552 32603 ft 461 kts 268°
2026-05-09 07:01 53.77881 -33.16210 32603 ft 460 kts 267°
2026-05-09 07:01 53.76978 -33.26925 32600 ft 460 kts 267°
2026-05-09 07:02 53.76063 -33.37629 32605 ft 460 kts 267°
2026-05-09 07:02 53.75144 -33.48316 32606 ft 459 kts 267°
2026-05-09 07:03 53.74214 -33.58997 32600 ft 459 kts 266°
2026-05-09 07:03 53.73273 -33.69660 32598 ft 459 kts 266°
2026-05-09 07:04 53.72337 -33.80241 32594 ft 458 kts 266°
2026-05-09 07:04 53.71389 -33.90891 32591 ft 458 kts 266°
2026-05-09 07:05 53.70433 -34.01532 32593 ft 458 kts 266°
2026-05-09 07:05 53.69465 -34.12162 32593 ft 458 kts 266°
2026-05-09 07:06 53.68472 -34.22787 32594 ft 458 kts 265°
2026-05-09 07:06 53.67477 -34.33407 32589 ft 458 kts 265°
2026-05-09 07:07 53.66489 -34.43937 32585 ft 457 kts 265°
2026-05-09 07:07 53.65478 -34.54522 32582 ft 457 kts 265°
2026-05-09 07:08 53.64458 -34.65106 32584 ft 457 kts 265°
2026-05-09 07:08 53.63439 -34.75660 32580 ft 456 kts 265°
2026-05-09 07:09 53.62409 -34.86200 32573 ft 455 kts 264°
2026-05-09 07:09 53.61373 -34.96719 32571 ft 455 kts 264°
2026-05-09 07:10 53.60317 -35.07213 32570 ft 454 kts 264°
2026-05-09 07:10 53.59264 -35.17630 32568 ft 454 kts 264°
2026-05-09 07:11 53.58206 -35.28104 32571 ft 453 kts 264°
2026-05-09 07:11 53.57136 -35.38571 32564 ft 453 kts 263°
2026-05-09 07:12 53.56056 -35.49002 32563 ft 452 kts 263°
2026-05-09 07:12 53.54961 -35.59418 32557 ft 452 kts 263°
2026-05-09 07:13 53.53869 -35.69823 32559 ft 451 kts 263°
2026-05-09 07:13 53.52769 -35.80201 32553 ft 451 kts 263°
2026-05-09 07:14 53.51657 -35.90562 32546 ft 451 kts 263°
2026-05-09 07:14 53.50540 -36.00867 32541 ft 450 kts 262°
2026-05-09 07:15 53.49407 -36.11233 32540 ft 450 kts 262°
2026-05-09 07:15 53.48265 -36.21580 32533 ft 450 kts 262°
2026-05-09 07:16 53.47132 -36.31850 32529 ft 450 kts 262°
2026-05-09 07:16 53.45982 -36.42190 32526 ft 450 kts 262°
2026-05-09 07:17 53.44821 -36.52507 32527 ft 450 kts 262°
2026-05-09 07:17 53.43652 -36.62806 32516 ft 449 kts 261°
2026-05-09 07:18 53.42467 -36.73096 32520 ft 449 kts 261°
2026-05-09 07:18 53.41276 -36.83373 32512 ft 449 kts 261°
2026-05-09 07:19 53.40082 -36.93641 32513 ft 448 kts 261°
2026-05-09 07:19 53.38883 -37.03818 32509 ft 448 kts 261°
2026-05-09 07:20 53.37675 -37.14054 32509 ft 447 kts 261°
2026-05-09 07:20 53.36464 -37.24258 32502 ft 447 kts 261°
2026-05-09 07:21 53.35241 -37.34462 32497 ft 446 kts 261°
2026-05-09 07:21 53.34006 -37.44636 32490 ft 446 kts 260°
2026-05-09 07:22 53.32772 -37.54787 32495 ft 445 kts 260°
2026-05-09 07:22 53.31528 -37.64922 32488 ft 444 kts 260°
2026-05-09 07:23 53.30283 -37.74966 32485 ft 443 kts 259°
2026-05-09 07:23 53.29026 -37.85047 32479 ft 443 kts 259°
2026-05-09 07:24 53.27768 -37.95113 32475 ft 442 kts 259°
2026-05-09 07:24 53.26493 -38.05159 32468 ft 441 kts 259°
2026-05-09 07:25 53.25211 -38.15179 32468 ft 441 kts 259°
2026-05-09 07:25 53.23923 -38.25181 32462 ft 440 kts 259°
2026-05-09 07:26 53.22640 -38.35177 32460 ft 440 kts 258°
2026-05-09 07:26 53.21354 -38.45160 32454 ft 439 kts 258°
2026-05-09 07:27 53.20042 -38.55102 32447 ft 439 kts 258°
2026-05-09 07:27 53.18727 -38.65042 32446 ft 439 kts 258°
2026-05-09 07:28 53.17418 -38.74907 32437 ft 438 kts 258°
2026-05-09 07:28 53.16091 -38.84814 32437 ft 438 kts 257°
2026-05-09 07:29 53.15419 -38.89779 32540 ft 439 kts 257°
2026-05-09 07:29 53.14749 -38.94732 32775 ft 438 kts 257°
2026-05-09 07:29 53.14080 -38.99690 33024 ft 438 kts 257°
2026-05-09 07:29 53.13410 -39.04634 33269 ft 437 kts 257°
2026-05-09 07:30 53.12737 -39.09574 33505 ft 437 kts 257°
2026-05-09 07:30 53.12063 -39.14507 33736 ft 436 kts 257°
2026-05-09 07:30 53.11385 -39.19429 33944 ft 436 kts 257°
2026-05-09 07:30 53.10707 -39.24350 34181 ft 436 kts 257°
2026-05-09 07:31 53.10028 -39.29261 34361 ft 436 kts 257°
2026-05-09 07:31 53.09358 -39.34104 34394 ft 435 kts 257°
2026-05-09 07:31 53.07996 -39.43917 34389 ft 435 kts 256°
2026-05-09 07:32 53.06623 -39.53701 34383 ft 434 kts 256°
2026-05-09 07:32 53.05241 -39.63476 34379 ft 434 kts 256°
2026-05-09 07:33 53.03155 -39.78117 34377 ft 434 kts 256°
2026-05-09 07:34 53.01776 -39.87818 34374 ft 434 kts 256°
2026-05-09 07:34 53.00597 -39.95995 34373 ft 434 kts 255°
2026-05-09 07:35 52.99158 -40.05738 34376 ft 434 kts 255°
2026-05-09 07:35 52.97681 -40.15455 34375 ft 434 kts 255°
2026-05-09 07:36 52.96211 -40.25117 34372 ft 434 kts 255°
2026-05-09 07:36 52.94731 -40.34815 34370 ft 434 kts 254°
2026-05-09 07:37 52.93240 -40.44502 34363 ft 433 kts 254°
2026-05-09 07:37 52.91737 -40.54177 34360 ft 433 kts 254°
2026-05-09 07:38 52.90227 -40.63837 34351 ft 433 kts 254°
2026-05-09 07:38 52.88718 -40.73494 34346 ft 433 kts 253°
2026-05-09 07:39 52.87215 -40.83075 34340 ft 433 kts 253°
2026-05-09 07:39 52.85693 -40.92711 34336 ft 433 kts 253°
2026-05-09 07:40 52.84146 -41.02352 34336 ft 433 kts 253°
2026-05-09 07:40 52.82603 -41.11979 34323 ft 432 kts 253°
2026-05-09 07:41 52.81053 -41.21593 34323 ft 432 kts 253°
2026-05-09 07:41 52.79493 -41.31203 34313 ft 432 kts 252°
2026-05-09 07:42 52.77934 -41.40739 34310 ft 432 kts 252°
2026-05-09 07:42 52.76361 -41.50337 34305 ft 432 kts 252°
2026-05-09 07:43 52.74785 -41.59913 34298 ft 432 kts 252°
2026-05-09 07:43 52.73198 -41.69490 34296 ft 432 kts 252°
2026-05-09 07:44 52.71611 -41.78998 34291 ft 432 kts 252°
2026-05-09 07:44 52.70007 -41.88557 34283 ft 432 kts 251°
2026-05-09 07:45 52.68392 -41.98091 34279 ft 432 kts 251°
2026-05-09 07:45 52.66780 -42.07575 34270 ft 432 kts 251°
2026-05-09 07:46 52.65160 -42.17119 34267 ft 432 kts 251°
2026-05-09 07:46 52.63533 -42.26649 34262 ft 432 kts 251°
2026-05-09 07:47 52.61892 -42.36165 34260 ft 432 kts 251°
2026-05-09 07:47 52.60249 -42.45625 34253 ft 432 kts 251°
2026-05-09 07:48 52.58588 -42.55135 34253 ft 432 kts 251°
2026-05-09 07:48 52.56926 -42.64622 34249 ft 432 kts 251°
2026-05-09 07:49 52.55270 -42.74048 34244 ft 431 kts 250°
2026-05-09 07:49 52.53596 -42.83510 34226 ft 431 kts 250°
2026-05-09 07:50 52.51911 -42.92956 34223 ft 431 kts 250°
2026-05-09 07:50 52.50227 -43.02419 34218 ft 431 kts 250°
2026-05-09 07:51 52.48536 -43.11846 34211 ft 431 kts 250°
2026-05-09 07:51 52.46828 -43.21278 34202 ft 431 kts 250°
2026-05-09 07:52 52.45126 -43.30633 34201 ft 430 kts 250°
2026-05-09 07:52 52.43407 -43.40049 34196 ft 430 kts 250°
2026-05-09 07:53 52.41674 -43.49437 34192 ft 430 kts 250°
2026-05-09 07:53 52.39945 -43.58837 34185 ft 430 kts 250°
2026-05-09 07:54 52.38225 -43.68172 34183 ft 430 kts 250°
2026-05-09 07:54 52.36475 -43.77554 34174 ft 430 kts 249°
2026-05-09 07:55 52.34718 -43.86893 34171 ft 429 kts 249°
2026-05-09 07:55 52.32955 -43.96236 34167 ft 429 kts 249°
2026-05-09 07:56 52.31207 -44.05490 34159 ft 428 kts 249°
2026-05-09 07:56 52.29444 -44.14782 34151 ft 427 kts 249°
2026-05-09 07:57 52.27677 -44.24061 34144 ft 426 kts 249°
2026-05-09 07:57 52.25916 -44.33237 34139 ft 425 kts 249°
2026-05-09 07:58 52.24131 -44.42461 34126 ft 425 kts 249°
2026-05-09 07:58 52.22348 -44.51659 34121 ft 425 kts 249°
2026-05-09 07:59 52.20572 -44.60778 34117 ft 424 kts 248°
2026-05-09 07:59 52.18783 -44.69944 34108 ft 424 kts 248°
2026-05-09 08:00 52.16982 -44.79093 34104 ft 423 kts 248°
2026-05-09 08:00 52.15176 -44.88222 34095 ft 423 kts 248°
2026-05-09 08:01 52.13367 -44.97351 34085 ft 423 kts 248°
2026-05-09 08:01 52.11552 -45.06462 34082 ft 423 kts 248°
2026-05-09 08:02 52.09736 -45.15493 34081 ft 423 kts 247°
2026-05-09 08:02 52.07896 -45.24595 34071 ft 423 kts 247°
2026-05-09 08:03 52.06060 -45.33678 34059 ft 423 kts 247°
2026-05-09 08:03 52.04213 -45.42760 34056 ft 423 kts 247°
2026-05-09 08:04 52.02362 -45.51833 34048 ft 422 kts 247°
2026-05-09 08:04 52.00519 -45.60841 34039 ft 422 kts 246°
2026-05-09 08:05 51.98662 -45.69885 34034 ft 422 kts 246°
2026-05-09 08:05 51.96795 -45.78927 34029 ft 422 kts 246°
2026-05-09 08:06 51.94922 -45.87941 34025 ft 422 kts 246°
2026-05-09 08:06 51.93055 -45.96878 34022 ft 421 kts 246°
2026-05-09 08:07 51.91167 -46.05863 34017 ft 421 kts 245°
2026-05-09 08:07 51.89277 -46.14828 34010 ft 420 kts 245°
2026-05-09 08:08 51.87387 -46.23783 34002 ft 419 kts 245°
2026-05-09 08:08 51.85509 -46.32658 33995 ft 419 kts 245°
2026-05-09 08:09 51.83609 -46.41546 33989 ft 418 kts 245°
2026-05-09 08:09 51.81700 -46.50426 33972 ft 417 kts 245°
2026-05-09 08:10 51.79795 -46.59272 33979 ft 416 kts 245°
2026-05-09 08:10 51.77888 -46.68098 33967 ft 416 kts 245°
2026-05-09 08:11 51.75973 -46.76901 33959 ft 415 kts 245°
2026-05-09 08:11 51.74071 -46.85637 33953 ft 414 kts 244°
2026-05-09 08:12 51.71184 -46.98780 33951 ft 413 kts 244°
2026-05-09 08:12 51.69264 -47.07510 33940 ft 413 kts 244°
2026-05-09 08:13 51.67349 -47.16177 33935 ft 412 kts 244°
2026-05-09 08:13 51.65407 -47.24887 33919 ft 412 kts 244°
2026-05-09 08:14 51.63463 -47.33591 33913 ft 412 kts 244°
2026-05-09 08:14 51.61530 -47.42212 33909 ft 412 kts 243°
2026-05-09 08:15 51.59575 -47.50898 33904 ft 413 kts 243°
2026-05-09 08:15 51.57616 -47.59593 33899 ft 413 kts 243°
2026-05-09 08:16 51.55664 -47.68224 33885 ft 413 kts 243°
2026-05-09 08:16 51.53683 -47.76877 33877 ft 412 kts 243°
2026-05-09 08:17 51.51705 -47.85527 33876 ft 412 kts 243°
2026-05-09 08:17 51.49743 -47.94116 33874 ft 411 kts 243°
2026-05-09 08:18 51.47754 -48.02737 33867 ft 411 kts 243°
2026-05-09 08:18 51.45760 -48.11317 33863 ft 410 kts 243°
2026-05-09 08:19 51.43761 -48.19883 33863 ft 409 kts 243°
2026-05-09 08:19 51.41783 -48.28362 33855 ft 408 kts 243°
2026-05-09 08:20 51.39786 -48.36874 33851 ft 407 kts 242°
2026-05-09 08:20 51.37788 -48.45352 33848 ft 407 kts 242°
2026-05-09 08:21 51.35789 -48.53831 33843 ft 406 kts 242°
2026-05-09 08:21 51.33799 -48.62227 33838 ft 405 kts 242°
2026-05-09 08:22 51.31787 -48.70649 33831 ft 404 kts 242°
2026-05-09 08:22 51.29795 -48.79010 33828 ft 404 kts 242°
2026-05-09 08:23 51.27790 -48.87390 33823 ft 404 kts 242°
2026-05-09 08:23 51.25776 -48.95756 33817 ft 403 kts 241°
2026-05-09 08:24 51.24101 -49.02704 33816 ft 403 kts 241°
2026-05-09 08:24 51.22077 -49.11045 33805 ft 402 kts 241°
2026-05-09 08:25 51.20043 -49.19365 33804 ft 402 kts 240°
2026-05-09 08:25 51.18005 -49.27672 33798 ft 402 kts 240°
2026-05-09 08:26 51.15986 -49.35920 33793 ft 402 kts 240°
2026-05-09 08:26 51.13948 -49.44205 33785 ft 401 kts 240°
2026-05-09 08:27 51.11909 -49.52464 33783 ft 401 kts 240°
2026-05-09 08:27 51.09864 -49.60724 33780 ft 400 kts 240°
2026-05-09 08:28 51.07808 -49.68953 33770 ft 400 kts 239°
2026-05-09 08:28 51.05764 -49.77115 33776 ft 399 kts 239°
2026-05-09 08:29 51.03712 -49.85311 33769 ft 399 kts 239°
2026-05-09 08:29 51.01650 -49.93488 33773 ft 398 kts 239°
2026-05-09 08:30 50.99591 -50.01658 33764 ft 398 kts 239°
2026-05-09 08:30 50.97617 -50.09822 33764 ft 398 kts 240°
2026-05-09 08:31 50.95665 -50.18046 33756 ft 398 kts 239°
2026-05-09 08:31 50.93713 -50.26249 33751 ft 397 kts 239°
2026-05-09 08:32 50.91736 -50.34412 33749 ft 396 kts 239°
2026-05-09 08:33 50.88755 -50.46612 33742 ft 395 kts 239°
2026-05-09 08:33 50.86788 -50.54676 33741 ft 395 kts 239°
2026-05-09 08:34 50.84800 -50.62786 33737 ft 394 kts 238°
2026-05-09 08:34 50.82800 -50.70867 33735 ft 394 kts 238°
2026-05-09 08:35 50.80805 -50.78939 33730 ft 394 kts 238°
2026-05-09 08:35 50.78820 -50.86957 33725 ft 394 kts 238°
2026-05-09 08:36 50.76812 -50.95027 33715 ft 394 kts 238°
2026-05-09 08:36 50.74800 -51.03083 33718 ft 394 kts 238°
2026-05-09 08:37 50.72789 -51.11128 33714 ft 394 kts 238°
2026-05-09 08:37 50.70775 -51.19128 33709 ft 394 kts 237°
2026-05-09 08:38 50.68734 -51.27173 33706 ft 395 kts 237°
2026-05-09 08:38 50.66692 -51.35225 33698 ft 395 kts 237°
2026-05-09 08:39 50.64647 -51.43282 33697 ft 396 kts 237°
2026-05-09 08:39 50.62600 -51.51317 33694 ft 397 kts 237°
2026-05-09 08:40 50.60531 -51.59405 33684 ft 398 kts 236°
2026-05-09 08:40 50.58459 -51.67427 33688 ft 398 kts 236°
2026-05-09 08:41 50.56368 -51.75510 33690 ft 399 kts 236°
2026-05-09 08:41 50.54279 -51.83609 33691 ft 399 kts 236°
2026-05-09 08:42 50.52194 -51.91643 33691 ft 399 kts 236°
2026-05-09 08:42 50.50072 -51.99693 33695 ft 395 kts 233°
2026-05-09 08:43 50.47515 -52.07214 33694 ft 389 kts 230°
2026-05-09 08:43 50.44940 -52.14643 33702 ft 389 kts 230°
2026-05-09 08:44 50.42351 -52.22101 33695 ft 388 kts 229°
2026-05-09 08:44 50.39760 -52.29530 33699 ft 388 kts 229°
2026-05-09 08:45 50.37190 -52.36897 33700 ft 387 kts 229°
2026-05-09 08:45 50.34596 -52.44297 33701 ft 386 kts 229°
2026-05-09 08:46 50.32018 -52.51637 33705 ft 386 kts 229°
2026-05-09 08:46 50.29431 -52.58991 33690 ft 385 kts 228°
2026-05-09 08:47 50.26840 -52.66312 33693 ft 384 kts 228°
2026-05-09 08:47 50.24243 -52.73612 33699 ft 384 kts 228°
2026-05-09 08:48 50.21653 -52.80896 33705 ft 383 kts 227°
2026-05-09 08:48 50.19078 -52.88125 33708 ft 383 kts 227°
2026-05-09 08:49 50.16485 -52.95384 33709 ft 383 kts 227°
2026-05-09 08:49 50.13883 -53.02625 33716 ft 382 kts 227°
2026-05-09 08:50 50.11273 -53.09870 33717 ft 382 kts 227°
2026-05-09 08:50 50.08685 -53.17066 33721 ft 382 kts 227°
2026-05-09 08:51 50.06076 -53.24284 33720 ft 382 kts 227°
2026-05-09 08:51 50.03457 -53.31506 33724 ft 382 kts 226°
2026-05-09 08:52 50.00851 -53.38672 33729 ft 382 kts 226°
2026-05-09 08:52 49.98220 -53.45863 33731 ft 382 kts 226°
2026-05-09 08:53 49.95590 -53.53040 33735 ft 382 kts 226°
2026-05-09 08:53 49.92971 -53.60198 33738 ft 383 kts 226°
2026-05-09 08:54 49.90328 -53.67388 33738 ft 383 kts 226°
2026-05-09 08:54 49.87681 -53.74565 33746 ft 383 kts 227°
2026-05-09 08:55 49.85030 -53.81737 33751 ft 383 kts 227°
2026-05-09 08:55 49.82389 -53.88860 33752 ft 384 kts 227°
2026-05-09 08:56 49.79719 -53.96047 33750 ft 384 kts 227°
2026-05-09 08:56 49.77046 -54.03218 33760 ft 385 kts 227°
2026-05-09 08:57 49.74365 -54.10393 33762 ft 385 kts 227°
2026-05-09 08:57 49.71671 -54.17568 33771 ft 386 kts 227°
2026-05-09 08:58 49.68991 -54.24692 33754 ft 386 kts 227°
2026-05-09 08:58 49.66286 -54.31876 33754 ft 387 kts 227°
2026-05-09 08:59 49.63567 -54.39050 33755 ft 387 kts 227°
2026-05-09 08:59 49.60849 -54.46224 33750 ft 388 kts 227°
2026-05-09 09:00 49.58122 -54.53405 33747 ft 388 kts 227°
2026-05-09 09:00 49.55390 -54.60582 33750 ft 388 kts 227°
2026-05-09 09:01 49.52669 -54.67705 33746 ft 388 kts 227°
2026-05-09 09:01 49.49921 -54.74865 33749 ft 388 kts 227°
2026-05-09 09:02 49.47169 -54.82024 33757 ft 389 kts 228°
2026-05-09 09:02 49.44418 -54.89188 33762 ft 389 kts 228°
2026-05-09 09:03 49.41656 -54.96345 33757 ft 390 kts 228°
2026-05-09 09:03 49.38888 -55.03504 33764 ft 390 kts 228°
2026-05-09 09:04 49.36101 -55.10663 33774 ft 390 kts 228°
2026-05-09 09:04 49.33325 -55.17773 33777 ft 391 kts 228°
2026-05-09 09:05 49.30528 -55.24941 33773 ft 392 kts 229°
2026-05-09 09:05 49.27723 -55.32124 33776 ft 392 kts 229°
2026-05-09 09:06 49.24926 -55.39244 33775 ft 393 kts 229°
2026-05-09 09:06 49.22097 -55.46411 33784 ft 394 kts 229°
2026-05-09 09:07 49.19260 -55.53580 33788 ft 394 kts 229°
2026-05-09 09:07 49.16411 -55.60764 33792 ft 395 kts 229°
2026-05-09 09:08 49.13566 -55.67954 33795 ft 396 kts 229°
2026-05-09 09:08 49.10707 -55.75155 33799 ft 396 kts 229°
2026-05-09 09:09 49.07852 -55.82300 33805 ft 397 kts 229°
2026-05-09 09:09 49.04969 -55.89497 33808 ft 398 kts 230°
2026-05-09 09:10 49.02082 -55.96696 33795 ft 398 kts 230°
2026-05-09 09:10 48.99186 -56.03892 33802 ft 399 kts 230°
2026-05-09 09:11 48.96289 -56.11104 33802 ft 399 kts 230°
2026-05-09 09:11 48.93375 -56.18307 33800 ft 400 kts 230°
2026-05-09 09:12 48.90471 -56.25463 33802 ft 400 kts 230°
2026-05-09 09:12 48.87536 -56.32663 33800 ft 401 kts 230°
2026-05-09 09:13 48.84595 -56.39879 33799 ft 402 kts 230°
2026-05-09 09:13 48.81644 -56.47095 33791 ft 403 kts 230°
2026-05-09 09:14 48.78678 -56.54317 33793 ft 404 kts 230°
2026-05-09 09:14 48.75704 -56.61554 33787 ft 405 kts 230°
2026-05-09 09:15 48.72717 -56.68799 33787 ft 406 kts 230°
2026-05-09 09:15 48.69732 -56.75998 33786 ft 407 kts 231°
2026-05-09 09:16 48.66719 -56.83261 33781 ft 408 kts 231°
2026-05-09 09:16 48.62694 -56.92947 33790 ft 409 kts 231°
2026-05-09 09:17 48.59664 -57.00227 33798 ft 410 kts 231°
2026-05-09 09:17 48.56617 -57.07522 33806 ft 411 kts 231°
2026-05-09 09:18 48.53558 -57.14822 33819 ft 412 kts 231°
2026-05-09 09:18 48.50494 -57.22126 33834 ft 412 kts 231°
2026-05-09 09:19 48.47411 -57.29431 33841 ft 413 kts 231°
2026-05-09 09:19 48.44320 -57.36727 33847 ft 413 kts 231°
2026-05-09 09:20 48.41234 -57.43978 33855 ft 414 kts 231°
2026-05-09 09:20 48.38133 -57.51282 33849 ft 414 kts 232°
2026-05-09 09:21 48.35026 -57.58592 33854 ft 415 kts 232°
2026-05-09 09:21 48.31910 -57.65909 33860 ft 416 kts 232°
2026-05-09 09:22 48.28783 -57.73212 33864 ft 416 kts 232°
2026-05-09 09:22 48.25653 -57.80464 33868 ft 416 kts 232°
2026-05-09 09:23 48.22503 -57.87764 33882 ft 417 kts 232°
2026-05-09 09:23 48.19344 -57.95073 33881 ft 417 kts 232°
2026-05-09 09:24 48.16185 -58.02374 33877 ft 418 kts 232°
2026-05-09 09:24 48.13012 -58.09669 33891 ft 418 kts 232°
2026-05-09 09:25 48.09858 -58.16916 33885 ft 418 kts 232°
2026-05-09 09:25 48.06669 -58.24209 33891 ft 419 kts 232°
2026-05-09 09:26 48.03479 -58.31493 33888 ft 419 kts 232°
2026-05-09 09:26 48.00277 -58.38770 33890 ft 419 kts 232°
2026-05-09 09:27 47.97077 -58.46048 33894 ft 419 kts 232°
2026-05-09 09:27 47.93885 -58.53280 33897 ft 419 kts 232°
2026-05-09 09:28 47.90667 -58.60549 33899 ft 420 kts 232°
2026-05-09 09:28 47.87449 -58.67816 33903 ft 420 kts 232°
2026-05-09 09:29 47.84220 -58.75082 33908 ft 420 kts 232°
2026-05-09 09:29 47.81005 -58.82280 33910 ft 421 kts 232°
2026-05-09 09:30 47.77758 -58.89534 33912 ft 421 kts 232°
2026-05-09 09:30 47.74511 -58.96788 33902 ft 421 kts 232°
2026-05-09 09:31 47.71251 -59.04024 33911 ft 422 kts 232°
2026-05-09 09:32 47.66347 -59.14884 33912 ft 422 kts 232°
2026-05-09 09:32 47.63066 -59.22117 33915 ft 423 kts 232°
2026-05-09 09:33 47.59809 -59.29306 33917 ft 423 kts 233°
2026-05-09 09:33 47.56522 -59.36549 33917 ft 424 kts 233°
2026-05-09 09:34 47.53218 -59.43777 33916 ft 424 kts 233°
2026-05-09 09:34 47.49901 -59.51016 33920 ft 425 kts 233°
2026-05-09 09:36 47.36596 -59.79892 33932 ft 426 kts 233°
2026-05-09 09:37 47.33272 -59.87069 33934 ft 427 kts 233°
2026-05-09 09:37 47.29928 -59.94294 33938 ft 427 kts 233°
2026-05-09 09:38 47.26566 -60.01521 33942 ft 427 kts 233°
2026-05-09 09:38 47.23189 -60.08737 33943 ft 428 kts 233°
2026-05-09 09:39 47.19808 -60.15945 33943 ft 428 kts 233°
2026-05-09 09:39 47.16445 -60.23105 33946 ft 428 kts 233°
2026-05-09 09:40 47.13051 -60.30298 33956 ft 428 kts 233°
2026-05-09 09:40 47.09655 -60.37497 33952 ft 429 kts 233°
2026-05-09 09:41 47.06248 -60.44682 33956 ft 429 kts 233°
2026-05-09 09:41 47.02856 -60.51823 33962 ft 429 kts 233°
2026-05-09 09:42 46.99446 -60.59010 33962 ft 430 kts 233°
2026-05-09 09:42 46.96024 -60.66200 33964 ft 430 kts 233°
2026-05-09 09:43 46.92589 -60.73382 33970 ft 430 kts 233°
2026-05-09 09:43 46.89171 -60.80499 33969 ft 430 kts 233°
2026-05-09 09:44 46.85718 -60.87667 33968 ft 431 kts 234°
2026-05-09 09:44 46.82262 -60.94832 33967 ft 431 kts 234°
2026-05-09 09:45 46.78824 -61.01952 33966 ft 431 kts 234°
2026-05-09 09:45 46.75356 -61.09102 33967 ft 432 kts 234°
2026-05-09 09:46 46.71889 -61.16256 33963 ft 432 kts 234°
2026-05-09 09:46 46.68410 -61.23397 33962 ft 432 kts 234°
2026-05-09 09:47 46.64919 -61.30531 33964 ft 432 kts 234°
2026-05-09 09:47 46.61432 -61.37670 33967 ft 433 kts 234°
2026-05-09 09:48 46.57955 -61.44765 33961 ft 433 kts 234°
2026-05-09 09:48 46.54451 -61.51886 33968 ft 433 kts 234°
2026-05-09 09:49 46.50940 -61.58998 33966 ft 433 kts 234°
2026-05-09 09:49 46.47426 -61.66106 33964 ft 433 kts 234°
2026-05-09 09:50 46.43905 -61.73217 33973 ft 433 kts 234°
2026-05-09 09:50 46.40401 -61.80262 33972 ft 434 kts 234°
2026-05-09 09:51 46.36864 -61.87346 33975 ft 434 kts 234°
2026-05-09 09:51 46.33321 -61.94434 33981 ft 434 kts 234°
2026-05-09 09:52 46.29785 -62.01507 33987 ft 434 kts 234°
2026-05-09 09:52 46.26257 -62.08533 33987 ft 434 kts 234°
2026-05-09 09:53 46.22710 -62.15592 33983 ft 434 kts 234°
2026-05-09 09:53 46.19152 -62.22641 33985 ft 434 kts 234°
2026-05-09 09:54 46.15586 -62.29673 33981 ft 434 kts 234°
2026-05-09 09:54 46.12025 -62.36705 33986 ft 434 kts 235°
2026-05-09 09:55 46.08460 -62.43722 33982 ft 434 kts 235°
2026-05-09 09:55 46.04909 -62.50683 33981 ft 434 kts 234°
2026-05-09 09:56 46.01328 -62.57678 33976 ft 434 kts 234°
2026-05-09 09:56 45.97742 -62.64663 33977 ft 433 kts 234°
2026-05-09 09:57 45.94181 -62.71591 33985 ft 433 kts 235°
2026-05-09 09:57 45.90596 -62.78553 33989 ft 433 kts 235°
2026-05-09 09:58 45.87011 -62.85510 33986 ft 433 kts 235°
2026-05-09 09:58 45.83421 -62.92459 33991 ft 433 kts 235°
2026-05-09 09:59 45.79826 -62.99399 33992 ft 433 kts 235°
2026-05-09 09:59 45.76245 -63.06275 33994 ft 433 kts 235°
2026-05-09 10:00 45.72644 -63.13182 33994 ft 432 kts 235°
2026-05-09 10:00 45.69046 -63.20076 33998 ft 432 kts 235°
2026-05-09 10:01 45.65467 -63.26918 34005 ft 431 kts 235°
2026-05-09 10:01 45.61877 -63.33778 34074 ft 431 kts 235°
2026-05-09 10:02 45.58276 -63.40608 33991 ft 430 kts 235°
2026-05-09 10:02 45.54679 -63.47410 33991 ft 429 kts 235°
2026-05-09 10:03 45.51086 -63.54207 33986 ft 428 kts 235°
2026-05-09 10:03 45.47514 -63.60942 33985 ft 428 kts 235°
2026-05-09 10:04 45.43918 -63.67702 33990 ft 428 kts 235°
2026-05-09 10:04 45.40324 -63.74453 33999 ft 427 kts 235°
2026-05-09 10:05 45.36724 -63.81204 33996 ft 427 kts 235°
2026-05-09 10:05 45.33131 -63.87925 34006 ft 427 kts 235°
2026-05-09 10:06 45.29559 -63.94585 34013 ft 426 kts 235°
2026-05-09 10:06 45.25962 -64.01275 34014 ft 425 kts 235°
2026-05-09 10:07 45.22364 -64.07951 34008 ft 425 kts 234°
2026-05-09 10:07 45.18765 -64.14602 34016 ft 424 kts 234°
2026-05-09 10:08 45.15201 -64.21185 34007 ft 423 kts 234°
2026-05-09 10:08 45.11622 -64.27798 34015 ft 422 kts 234°
2026-05-09 10:09 45.08033 -64.34387 34016 ft 422 kts 234°
2026-05-09 10:09 45.04457 -64.40946 34021 ft 421 kts 234°
2026-05-09 10:10 45.00895 -64.47457 34020 ft 420 kts 234°
2026-05-09 10:10 44.97324 -64.53976 34022 ft 419 kts 234°
2026-05-09 10:11 44.93755 -64.60479 34032 ft 418 kts 234°
2026-05-09 10:11 44.90189 -64.66960 34039 ft 417 kts 234°
2026-05-09 10:12 44.86632 -64.73423 34037 ft 417 kts 234°
2026-05-09 10:12 44.83075 -64.79867 34043 ft 416 kts 234°
2026-05-09 10:13 44.80116 -64.85208 34039 ft 416 kts 234°
2026-05-09 10:13 44.76556 -64.91613 34039 ft 415 kts 234°
2026-05-09 10:14 44.72995 -64.98009 34038 ft 414 kts 234°
2026-05-09 10:14 44.69457 -65.04348 34039 ft 414 kts 234°
2026-05-09 10:15 44.65904 -65.10718 34036 ft 413 kts 234°
2026-05-09 10:15 44.62355 -65.17072 34041 ft 413 kts 234°
2026-05-09 10:16 44.58797 -65.23405 34037 ft 413 kts 233°
2026-05-09 10:16 44.55242 -65.29730 34041 ft 412 kts 233°
2026-05-09 10:17 44.51689 -65.36039 34037 ft 412 kts 233°
2026-05-09 10:17 44.48146 -65.42332 34045 ft 411 kts 233°
2026-05-09 10:18 44.44620 -65.48559 34035 ft 410 kts 233°
2026-05-09 10:18 44.41067 -65.54816 34036 ft 410 kts 233°
2026-05-09 10:19 44.37526 -65.61059 34047 ft 409 kts 233°
2026-05-09 10:19 44.33979 -65.67285 34049 ft 409 kts 233°
2026-05-09 10:20 44.30452 -65.73448 34042 ft 408 kts 233°
2026-05-09 10:20 44.26906 -65.79633 34047 ft 407 kts 233°
2026-05-09 10:21 44.23362 -65.85818 34043 ft 407 kts 233°
2026-05-09 10:21 44.19827 -65.91972 34046 ft 406 kts 233°
2026-05-09 10:22 44.16293 -65.98113 34047 ft 406 kts 233°
2026-05-09 10:22 44.12758 -66.04242 34051 ft 405 kts 232°
2026-05-09 10:23 44.09244 -66.10309 34052 ft 404 kts 232°
2026-05-09 10:23 44.05718 -66.16400 34059 ft 404 kts 233°
2026-05-09 10:24 44.02198 -66.22471 34056 ft 403 kts 232°
2026-05-09 10:24 43.98670 -66.28517 34063 ft 402 kts 232°
2026-05-09 10:25 43.95150 -66.34554 34063 ft 402 kts 232°
2026-05-09 10:25 43.91655 -66.40533 34061 ft 401 kts 232°
2026-05-09 10:26 43.88138 -66.46539 34063 ft 400 kts 232°
2026-05-09 10:26 43.84626 -66.52530 34062 ft 400 kts 232°
2026-05-09 10:27 43.81110 -66.58507 34064 ft 399 kts 232°
2026-05-09 10:27 43.77617 -66.64430 34066 ft 399 kts 232°
2026-05-09 10:28 43.74111 -66.70366 34066 ft 398 kts 232°
2026-05-09 10:28 43.70601 -66.76293 34070 ft 398 kts 232°
2026-05-09 10:29 43.67094 -66.82213 34074 ft 397 kts 232°
2026-05-09 10:29 43.63594 -66.88118 34076 ft 397 kts 232°
2026-05-09 10:30 43.60114 -66.93962 34080 ft 396 kts 232°
2026-05-09 10:30 43.56631 -66.99870 34078 ft 395 kts 237°
2026-05-09 10:31 43.53841 -67.06367 34077 ft 394 kts 241°
2026-05-09 10:31 43.51120 -67.12859 34083 ft 393 kts 240°
2026-05-09 10:32 43.48370 -67.19377 34086 ft 393 kts 240°
2026-05-09 10:32 43.45636 -67.25881 34084 ft 393 kts 240°
2026-05-09 10:33 43.42888 -67.32384 34087 ft 392 kts 240°
2026-05-09 10:33 43.40141 -67.38875 34086 ft 392 kts 240°
2026-05-09 10:34 43.37408 -67.45304 34085 ft 392 kts 240°
2026-05-09 10:34 43.33277 -67.55009 34083 ft 392 kts 240°
2026-05-09 10:35 43.30516 -67.61471 34083 ft 392 kts 240°
2026-05-09 10:35 43.27753 -67.67927 34079 ft 392 kts 240°
2026-05-09 10:36 43.24987 -67.74372 34078 ft 392 kts 240°
2026-05-09 10:36 43.22233 -67.80780 34083 ft 392 kts 240°
2026-05-09 10:37 43.19457 -67.87222 34081 ft 392 kts 240°
2026-05-09 10:37 43.16674 -67.93662 34085 ft 392 kts 240°
2026-05-09 10:38 43.13894 -68.00099 34044 ft 392 kts 245°
2026-05-09 10:38 43.11117 -68.06523 34072 ft 394 kts 245°
2026-05-09 10:39 43.08311 -68.12985 34075 ft 394 kts 245°
2026-05-09 10:39 43.05506 -68.19417 34080 ft 393 kts 245°
2026-05-09 10:40 43.02714 -68.25799 34082 ft 393 kts 245°
2026-05-09 10:40 42.99912 -68.32202 34085 ft 392 kts 245°
2026-05-09 10:41 42.97117 -68.38584 34100 ft 391 kts 245°
2026-05-09 10:41 42.94317 -68.44956 34085 ft 390 kts 245°
2026-05-09 10:42 42.91519 -68.51307 34096 ft 390 kts 245°
2026-05-09 10:42 42.88747 -68.57594 34092 ft 389 kts 245°
2026-05-09 10:43 42.85957 -68.63917 34090 ft 388 kts 245°
2026-05-09 10:43 42.83168 -68.70206 34090 ft 387 kts 245°
2026-05-09 10:44 42.80380 -68.76483 34090 ft 387 kts 245°
2026-05-09 10:44 42.77610 -68.82705 34091 ft 386 kts 245°
2026-05-09 10:46 42.70646 -68.98265 34096 ft 384 kts 245°
2026-05-09 10:46 42.67858 -69.04458 34095 ft 383 kts 245°
2026-05-09 10:47 42.65079 -69.10643 34092 ft 383 kts 245°
2026-05-09 10:47 42.62303 -69.16820 34351 ft 383 kts 245°
2026-05-09 10:47 42.60930 -69.19865 34608 ft 383 kts 245°
2026-05-09 10:48 42.59535 -69.22955 34842 ft 384 kts 245°
2026-05-09 10:48 42.58132 -69.26048 35074 ft 385 kts 245°
2026-05-09 10:48 42.56676 -69.29117 35292 ft 387 kts 243°
2026-05-09 10:48 42.55182 -69.32168 35512 ft 388 kts 243°
2026-05-09 10:49 42.53683 -69.35212 35720 ft 388 kts 243°
2026-05-09 10:49 42.52175 -69.38257 35937 ft 389 kts 243°
2026-05-09 10:49 42.50659 -69.41308 36050 ft 391 kts 243°
2026-05-09 10:50 42.47640 -69.47374 36078 ft 390 kts 243°
2026-05-09 10:50 42.44596 -69.53469 36077 ft 390 kts 243°
2026-05-09 10:51 42.41552 -69.59557 36083 ft 390 kts 243°
2026-05-09 10:51 42.38507 -69.65641 36077 ft 390 kts 243°
2026-05-09 10:52 42.35487 -69.71673 36075 ft 390 kts 243°
2026-05-09 10:52 42.32438 -69.77747 36085 ft 390 kts 243°
2026-05-09 10:53 42.29377 -69.83819 36083 ft 390 kts 243°
2026-05-09 10:53 42.26316 -69.89885 36079 ft 391 kts 243°
2026-05-09 10:54 42.23273 -69.95908 36076 ft 391 kts 243°
2026-05-09 10:54 42.20210 -70.01969 36071 ft 391 kts 243°
2026-05-09 10:55 42.17143 -70.08037 36063 ft 391 kts 243°
2026-05-09 10:55 42.14071 -70.14090 36061 ft 391 kts 243°
2026-05-09 10:56 42.11007 -70.20103 36066 ft 392 kts 243°
2026-05-09 10:56 42.07917 -70.26151 36069 ft 392 kts 243°
2026-05-09 10:57 42.04823 -70.32202 36070 ft 392 kts 242°
2026-05-09 10:57 42.01723 -70.38254 36070 ft 392 kts 242°
2026-05-09 10:58 41.98614 -70.44294 36067 ft 392 kts 242°
2026-05-09 10:58 41.95526 -70.50295 36045 ft 392 kts 242°
2026-05-09 10:59 41.92417 -70.56332 36042 ft 393 kts 242°
2026-05-09 10:59 41.89305 -70.62362 36040 ft 393 kts 242°
2026-05-09 11:00 41.86182 -70.68388 36041 ft 393 kts 242°
2026-05-09 11:00 41.83050 -70.74419 36041 ft 393 kts 242°
2026-05-09 11:01 41.79940 -70.80394 36058 ft 393 kts 242°
2026-05-09 11:01 41.76810 -70.86407 36062 ft 393 kts 242°
2026-05-09 11:02 41.73678 -70.92405 36075 ft 393 kts 242°
2026-05-09 11:02 41.70545 -70.98405 36077 ft 392 kts 242°
2026-05-09 11:03 41.67428 -71.04355 36075 ft 392 kts 242°
2026-05-09 11:03 41.64291 -71.10335 36075 ft 392 kts 242°
2026-05-09 11:04 41.61161 -71.16292 36071 ft 391 kts 242°
2026-05-09 11:04 41.58024 -71.22243 36060 ft 391 kts 242°
2026-05-09 11:05 41.55415 -71.27173 36060 ft 391 kts 242°
2026-05-09 11:05 41.51769 -71.34059 36061 ft 390 kts 242°
2026-05-09 11:06 41.49145 -71.39014 36070 ft 390 kts 242°
2026-05-09 11:06 41.46036 -71.44874 36064 ft 389 kts 242°
2026-05-09 11:07 41.42899 -71.50780 36063 ft 389 kts 242°
2026-05-09 11:07 41.39769 -71.56658 36050 ft 389 kts 242°
2026-05-09 11:08 41.36637 -71.62528 36048 ft 388 kts 242°
2026-05-09 11:08 41.33495 -71.68385 36053 ft 388 kts 241°
2026-05-09 11:09 41.30381 -71.74188 36050 ft 387 kts 241°
2026-05-09 11:09 41.27252 -71.80018 36049 ft 387 kts 242°
2026-05-09 11:10 41.24122 -71.85848 35888 ft 387 kts 241°
2026-05-09 11:10 41.22555 -71.88755 35638 ft 386 kts 242°
2026-05-09 11:10 41.20993 -71.91648 35398 ft 386 kts 242°
2026-05-09 11:10 41.19447 -71.94509 35152 ft 386 kts 242°
2026-05-09 11:11 41.17880 -71.97406 34909 ft 386 kts 242°
2026-05-09 11:11 41.16314 -72.00302 34668 ft 386 kts 242°
2026-05-09 11:11 41.14737 -72.03204 34426 ft 387 kts 242°
2026-05-09 11:11 41.13160 -72.06101 34094 ft 387 kts 242°
2026-05-09 11:12 41.11575 -72.09010 33336 ft 389 kts 242°
2026-05-09 11:12 41.10130 -72.12008 32549 ft 384 kts 249°
2026-05-09 11:12 41.09111 -72.15262 31725 ft 381 kts 256°
2026-05-09 11:12 41.08306 -72.18575 30911 ft 383 kts 256°
2026-05-09 11:13 41.07479 -72.21962 29995 ft 388 kts 256°
2026-05-09 11:13 41.06638 -72.25382 28997 ft 391 kts 255°
2026-05-09 11:13 41.05789 -72.28811 28071 ft 392 kts 255°
2026-05-09 11:13 41.04931 -72.32258 27051 ft 395 kts 255°
2026-05-09 11:14 41.04062 -72.35737 25995 ft 400 kts 255°
2026-05-09 11:14 41.03189 -72.39223 25376 ft 395 kts 255°
2026-05-09 11:14 41.02326 -72.42656 24702 ft 391 kts 254°
2026-05-09 11:14 41.01482 -72.46012 24037 ft 387 kts 254°
2026-05-09 11:15 41.00633 -72.49387 23336 ft 384 kts 254°
2026-05-09 11:15 40.99794 -72.52723 22656 ft 379 kts 254°
2026-05-09 11:15 40.98971 -72.56002 22020 ft 373 kts 254°
2026-05-09 11:15 40.98162 -72.59237 21384 ft 368 kts 254°
2026-05-09 11:16 40.97361 -72.62427 20754 ft 363 kts 254°
2026-05-09 11:16 40.96567 -72.65580 20145 ft 359 kts 253°
2026-05-09 11:16 40.95779 -72.68701 19546 ft 355 kts 253°
2026-05-09 11:16 40.94998 -72.71789 18960 ft 353 kts 253°
2026-05-09 11:17 40.94222 -72.74860 18396 ft 351 kts 253°
2026-05-09 11:17 40.93253 -72.77817 17771 ft 351 kts 243°
2026-05-09 11:17 40.91848 -72.80461 17221 ft 353 kts 233°
2026-05-09 11:17 40.90076 -72.82659 16666 ft 356 kts 222°
2026-05-09 11:18 40.88074 -72.84562 16156 ft 352 kts 221°
2026-05-09 11:18 40.86094 -72.86447 15620 ft 349 kts 221°
2026-05-09 11:18 40.84137 -72.88320 15085 ft 346 kts 221°
2026-05-09 11:18 40.82196 -72.90183 14537 ft 344 kts 221°
2026-05-09 11:19 40.80263 -72.92038 13979 ft 342 kts 220°
2026-05-09 11:19 40.78336 -72.93886 13369 ft 341 kts 220°
2026-05-09 11:19 40.76419 -72.95723 12781 ft 338 kts 220°
2026-05-09 11:19 40.74521 -72.97543 12196 ft 336 kts 220°
2026-05-09 11:20 40.72663 -72.99324 11616 ft 333 kts 219°
2026-05-09 11:20 40.70893 -73.01266 11047 ft 327 kts 230°
2026-05-09 11:20 40.69615 -73.03626 10906 ft 309 kts 243°
2026-05-09 11:20 40.68851 -73.06190 10774 ft 294 kts 256°
2026-05-09 11:21 40.68583 -73.08796 10651 ft 282 kts 268°
2026-05-09 11:21 40.68597 -73.11324 10524 ft 270 kts 268°
2026-05-09 11:21 40.68613 -73.13756 10339 ft 262 kts 268°
2026-05-09 11:21 40.68625 -73.16131 10084 ft 257 kts 268°
2026-05-09 11:22 40.68692 -73.18477 9837 ft 258 kts 277°
2026-05-09 11:22 40.69428 -73.20649 9488 ft 268 kts 303°
2026-05-09 11:22 40.70832 -73.22324 9096 ft 275 kts 316°
2026-05-09 11:22 40.72355 -73.23815 8708 ft 276 kts 317°
2026-05-09 11:23 40.73877 -73.25273 8329 ft 276 kts 317°
2026-05-09 11:23 40.75458 -73.26784 7932 ft 276 kts 317°
2026-05-09 11:23 40.77010 -73.28265 7561 ft 275 kts 317°
2026-05-09 11:23 40.78564 -73.29741 7189 ft 276 kts 317°
2026-05-09 11:24 40.80123 -73.31219 6817 ft 275 kts 317°
2026-05-09 11:24 40.81681 -73.32697 6449 ft 275 kts 317°
2026-05-09 11:24 40.83233 -73.34177 6065 ft 274 kts 316°
2026-05-09 11:24 40.84511 -73.35951 5676 ft 262 kts 299°
2026-05-09 11:25 40.85539 -73.37924 5297 ft 261 kts 297°
2026-05-09 11:25 40.86522 -73.39899 4929 ft 260 kts 297°
2026-05-09 11:25 40.87494 -73.41914 4540 ft 259 kts 294°
2026-05-09 11:25 40.87979 -73.44126 4151 ft 248 kts 266°
2026-05-09 11:26 40.87800 -73.46378 3771 ft 246 kts 258°
2026-05-09 11:26 40.87503 -73.48608 3394 ft 247 kts 257°
2026-05-09 11:26 40.87114 -73.50817 3053 ft 245 kts 245°
2026-05-09 11:26 40.86201 -73.52696 3013 ft 246 kts 231°
2026-05-09 11:27 40.85139 -73.54476 3010 ft 245 kts 231°
2026-05-09 11:27 40.84116 -73.56194 3002 ft 230 kts 231°
2026-05-09 11:27 40.83163 -73.57796 3015 ft 216 kts 231°
2026-05-09 11:27 40.82237 -73.59351 3041 ft 215 kts 231°
2026-05-09 11:28 40.81326 -73.60879 3011 ft 214 kts 231°
2026-05-09 11:28 40.80416 -73.62401 3001 ft 203 kts 231°
2026-05-09 11:28 40.79484 -73.63677 3020 ft 184 kts 217°
2026-05-09 11:28 40.78432 -73.64566 2999 ft 176 kts 213°
2026-05-09 11:29 40.77390 -73.65393 2923 ft 173 kts 213°
2026-05-09 11:29 40.76370 -73.66196 2752 ft 163 kts 212°
2026-05-09 11:29 40.75419 -73.66943 2540 ft 155 kts 212°
2026-05-09 11:29 40.74504 -73.67662 2334 ft 152 kts 212°
2026-05-09 11:30 40.73598 -73.68374 2136 ft 151 kts 212°
2026-05-09 11:30 40.72703 -73.69076 1932 ft 151 kts 212°
2026-05-09 11:30 40.71800 -73.69785 1732 ft 151 kts 212°
2026-05-09 11:30 40.70895 -73.70495 1518 ft 150 kts 211°
2026-05-09 11:31 40.69994 -73.71200 1319 ft 150 kts 211°
2026-05-09 11:31 40.69099 -73.71901 1123 ft 144 kts 211°
2026-05-09 11:31 40.68821 -73.72120 1062 ft 143 kts 211°
2026-05-09 11:31 40.68245 -73.72575 957 ft 137 kts 210°
2026-05-09 11:32 40.67423 -73.73217 741 ft 137 kts 210°
2026-05-09 11:32 40.66610 -73.73854 533 ft 138 kts 208°
2026-05-09 11:32 40.65786 -73.74502 370 ft 137 kts 209°
2026-05-09 11:32 40.64972 -73.75143 182 ft 135 kts 208°
2026-05-09 11:33 40.64162 -73.75772 30 ft 132 kts 208°
2026-05-09 11:33 40.63484 -73.76299 20 ft 91 kts 211°
2026-05-09 11:33 40.63000 -73.76750 20 ft 28 kts 235°
2026-05-09 11:34 40.62955 -73.76837 18 ft 9 kts 236°
2026-05-09 11:34 40.62927 -73.76919 16 ft 11 kts 258°
2026-05-09 11:34 40.62951 -73.77018 16 ft 13 kts 304°
2026-05-09 11:34 40.62999 -73.77121 16 ft 14 kts 299°
2026-05-09 11:35 40.63051 -73.77237 16 ft 15 kts 301°
2026-05-09 11:35 40.63107 -73.77364 16 ft 17 kts 301°
2026-05-09 11:35 40.63169 -73.77500 16 ft 18 kts 301°
2026-05-09 11:35 40.63229 -73.77631 19 ft 12 kts 301°
2026-05-09 11:36 40.63267 -73.77714 21 ft 10 kts 301°
2026-05-09 11:36 40.63309 -73.77805 20 ft 14 kts 301°
2026-05-09 11:36 40.63388 -73.77814 17 ft 15 kts 47°
2026-05-09 11:36 40.63475 -73.77732 17 ft 16 kts 31°
2026-05-09 11:37 40.63576 -73.77652 16 ft 18 kts 30°
2026-05-09 11:37 40.63687 -73.77566 16 ft 19 kts 30°
2026-05-09 11:37 40.63805 -73.77474 16 ft 20 kts 31°
2026-05-09 11:37 40.63928 -73.77378 16 ft 21 kts 30°
2026-05-09 11:38 40.64059 -73.77275 17 ft 22 kts 32°
2026-05-09 11:38 40.64195 -73.77168 17 ft 23 kts 28°
2026-05-09 11:38 40.64324 -73.77067 17 ft 21 kts 30°
2026-05-09 11:38 40.64452 -73.76992 16 ft 17 kts 12°
2026-05-09 11:39 40.64575 -73.76986 16 ft 18 kts
2026-05-09 11:39 40.64702 -73.77013 16 ft 19 kts 335°
2026-05-09 11:39 40.64795 -73.77137 18 ft 20 kts 301°
2026-05-09 11:40 40.64817 -73.77326 16 ft 10 kts 212°
2026-05-09 11:40 40.64758 -73.77372 16 ft 7 kts 207°
2026-05-09 11:40 40.64716 -73.77356 16 ft 3 kts 127°
2026-05-09 11:40 40.64689 -73.77342 16 ft 6 kts 172°
2026-05-09 11:41 40.64653 -73.77346 16 ft 4 kts 189°
2026-05-09 11:41 40.64632 -73.77351 16 ft 3 kts 189°
2026-05-09 11:41 40.64622 -73.77353 16 ft 0 kts 189°